1537106401.06,51136,20.88,74576.3,9.35,-15.71,-15.57,0,*76
1537106402.33,51137,20.88,74578.3,9.35,-15.57,-15.21,0,*72
1537106403.57,51138,20.88,74572.8,9.35,-16.97,-16.51,0,*76
1537106404.79,51139,20.88,74572.0,9.33,-18.31,-18.25,0,*7E
1537106406.0,51140,20.88,74574.3,9.33,-18.79,-17.87,0,*7B
1537106407.25,51141,20.88,74572.8,9.31,-19.13,-17.93,0,*70
1537106408.5,51142,20.88,74574.0,9.27,-17.79,-16.75,0,*7F
1537106409.75,51143,20.88,74572.8,9.27,-17.59,-16.93,0,*74
1537106410.99,51144,20.88,74570.8,9.27,-14.69,-15.01,0,*7B
1537106412.24,51145,20.88,74572.5,9.31,-13.65,-14.79,0,*78
1537106413.49,51146,20.88,74572.0,9.33,-13.29,-15.01,0,*7F
1537106414.71,51147,20.88,74572.5,9.35,-13.47,-15.49,0,*7C
1537106415.94,51148,20.88,74576.5,9.35,-15.07,-17.35,0,*78
1537106417.16,51149,20.88,74578.3,9.35,-15.63,-17.73,0,*79
1537106418.44,51150,20.81,74572.8,9.35,-17.41,-19.61,0,*7E
1537106419.67,51151,20.88,74568.8,9.31,-19.37,-21.77,0,*78
1537106420.9,51152,20.88,74572.0,9.27,-20.35,-22.41,0,*72
1537106422.13,51153,20.88,74568.3,9.23,-20.43,-22.27,0,*76
1537106423.41,51154,20.88,74574.5,9.19,-20.15,-21.67,0,*7C
1537106424.66,51155,20.88,74570.5,9.15,-18.69,-19.85,0,*76
1537106425.89,51156,20.88,74572.3,9.13,-19.17,-20.15,0,*78
1537106427.14,51157,20.88,74578.0,9.11,-19.37,-20.15,0,*79
1537106428.39,51158,20.88,74574.5,9.09,-18.89,-19.65,0,*76
1537106429.61,51159,20.88,74570.8,9.05,-18.83,-20.05,0,*7D
1537106430.86,51160,20.88,74566.8,9.01,-18.55,-19.75,0,*75
1537106432.08,51161,20.88,74572.0,9.01,-17.83,-19.07,0,*75
1537106433.36,51162,20.88,74572.5,8.97,-17.07,-18.31,0,*70
1537106434.58,51163,20.88,74570.8,8.99,-15.75,-17.55,0,*75
1537106435.82,51164,20.88,74572.8,8.99,-16.17,-18.89,0,*7B
1537106437.06,51165,20.88,74576.5,8.97,-15.63,-18.59,0,*79
1537106438.33,51166,20.88,74576.5,8.93,-16.31,-20.19,0,*75
1537106439.56,51167,20.88,74576.8,8.93,-15.75,-19.37,0,*71
1537106440.74,51168,20.88,74578.5,8.95,-15.11,-18.41,0,*7A
1537106441.93,51169,20.88,74576.8,8.95,-15.71,-18.83,0,*73
1537106443.15,51170,20.88,74578.3,8.93,-16.75,-19.51,0,*74
1537106444.41,51171,20.88,74576.0,8.93,-16.13,-18.45,0,*71
1537106445.65,51172,20.88,74574.3,8.93,-15.75,-17.93,0,*75
1537106446.85,51173,20.88,74574.8,8.95,-15.99,-17.87,0,*75
1537106448.06,51174,20.88,74574.8,8.93,-17.31,-18.99,0,*74
1537106449.25,51175,20.88,74578.0,8.95,-18.21,-19.99,0,*7C
1537106450.5,51176,20.88,74578.8,8.93,-18.59,-20.05,0,*79
1537106451.72,51177,20.88,74576.3,8.91,-18.59,-20.09,0,*76
1537106452.95,51178,20.88,74572.8,8.93,-17.69,-19.13,0,*76
1537106454.19,51179,20.88,74574.0,8.93,-16.89,-18.55,0,*7B
1537106455.42,51180,20.88,74572.3,8.95,-16.59,-18.35,0,*70
1537106456.65,51181,20.88,74572.0,8.93,-16.31,-18.25,0,*78
1537106457.88,51182,20.88,74578.3,8.93,-16.75,-18.73,0,*78
1537106459.1,51183,20.88,74574.8,8.93,-16.59,-18.25,0,*74
1537106460.29,51184,20.88,74572.0,8.95,-16.59,-18.17,0,*74
1537106461.5,51185,20.88,74574.3,8.95,-16.31,-17.73,0,*76
1537106462.75,51186,20.88,74572.0,8.95,-15.81,-16.69,0,*77
1537106463.98,51187,20.88,74574.8,8.95,-16.41,-17.59,0,*7B
1537106465.22,51188,20.88,74570.8,8.95,-14.83,-16.23,0,*74
1537106466.44,51189,20.88,74572.3,8.95,-15.43,-16.89,0,*78
1537106467.66,51190,20.88,74570.0,8.95,-15.25,-16.27,0,*74
1537106468.88,51191,20.88,74572.5,8.97,-14.65,-15.67,0,*75
1537106470.08,51192,20.88,74572.3,8.99,-12.89,-14.15,0,*78
1537106471.29,51193,20.88,74572.3,8.99,-14.15,-15.29,0,*74
1537106472.48,51194,20.88,74572.5,8.99,-15.07,-16.55,0,*79
1537106473.69,51195,20.88,74572.3,8.99,-14.61,-15.49,0,*77
1537106474.91,51196,20.88,74576.3,8.99,-12.65,-14.65,0,*79
1537106476.13,51197,20.88,74578.8,8.99,-14.05,-16.97,0,*77
1537106477.35,51198,20.88,74574.3,8.97,-16.97,-19.51,0,*7A
1537106478.63,51199,20.88,74572.8,8.97,-16.17,-18.31,0,*74
1537106479.86,51200,20.88,74580.5,8.97,-15.63,-18.73,0,*71
1537106481.11,51201,20.88,74572.5,8.93,-17.41,-19.47,0,*70
1537106482.33,51202,20.88,74574.3,8.93,-17.83,-19.51,0,*7A
1537106483.56,51203,20.88,74574.8,8.93,-16.75,-18.07,0,*71
1537106484.76,51204,20.88,74574.3,8.91,-15.75,-17.83,0,*74
1537106485.99,51205,20.88,74572.5,8.89,-17.83,-19.37,0,*76
1537106487.22,51206,20.88,74574.3,8.89,-16.93,-18.59,0,*7C
1537106488.44,51207,20.88,74570.8,8.85,-17.73,-18.99,0,*72
1537106489.67,51208,20.88,74572.5,8.85,-16.97,-17.87,0,*76
1537106490.92,51209,20.88,74574.0,8.85,-16.45,-17.17,0,*71
1537106492.15,51210,20.88,74574.0,8.85,-15.71,-16.41,0,*7F
1537106493.39,51211,20.88,74576.3,8.85,-14.93,-16.41,0,*73
1537106494.64,51212,20.88,74576.5,8.81,-12.79,-14.23,0,*70
1537106495.87,51213,20.88,74576.0,8.81,-12.43,-13.23,0,*7F
1537106497.14,51214,20.88,74576.0,8.85,-12.11,-13.61,0,*7D
1537106498.43,51215,20.88,74576.5,8.85,-11.93,-14.05,0,*70
1537106499.61,51216,20.88,74576.3,8.87,-12.47,-13.47,0,*7A
1537106500.89,51217,20.88,74576.3,8.89,-12.57,-12.71,0,*70
1537106502.12,51218,20.88,74576.0,8.93,-11.41,-13.23,0,*76
1537106503.35,51219,20.88,74578.8,8.91,-11.29,-13.23,0,*7B
1537106504.62,51220,20.88,74576.3,8.93,-11.33,-12.83,0,*73
1537106505.89,51221,20.88,74576.3,8.97,-11.77,-12.65,0,*7E
1537106507.14,51222,20.88,74578.3,8.97,-11.23,-12.35,0,*79
1537106508.37,51223,20.88,74574.8,8.99,-11.93,-12.93,0,*71
1537106509.59,51224,20.88,74572.0,8.99,-11.67,-12.43,0,*70
1537106510.87,51225,20.88,74574.8,9.01,-12.11,-12.15,0,*70
1537106512.08,51226,20.88,74574.0,9.03,-12.83,-12.97,0,*70
1537106513.35,51227,20.88,74572.5,9.05,-11.81,-12.35,0,*7E
1537106514.58,51228,20.88,74572.5,9.09,-11.93,-13.07,0,*7E
1537106515.81,51229,20.88,74572.0,9.09,-12.65,-13.15,0,*76
1537106517.09,51230,20.88,74574.0,9.11,-13.87,-13.33,0,*7E
1537106518.32,51231,20.88,74570.8,9.13,-15.35,-15.49,0,*79
1537106519.55,51232,20.88,74576.0,9.13,-16.51,-16.89,0,*74
1537106520.8,51233,20.88,74574.5,9.11,-16.03,-16.65,0,*72
1537106522.08,51234,20.88,74574.5,9.11,-17.55,-18.35,0,*7C
1537106523.28,51235,20.88,74572.5,9.09,-16.83,-16.79,0,*78
1537106524.48,51236,20.88,74572.0,9.09,-18.07,-18.17,0,*7F
1537106525.7,51237,20.88,74578.3,9.05,-18.25,-18.21,0,*77
1537106526.92,51238,20.88,74574.5,9.05,-16.97,-16.41,0,*77
1537106528.14,51239,20.88,74576.0,9.03,-16.51,-15.99,0,*7C
1537106529.33,51240,20.88,74574.5,9.03,-14.89,-14.33,0,*74
1537106530.54,51241,20.88,74578.0,9.05,-14.69,-13.65,0,*79
1537106531.81,51242,20.88,74578.8,9.05,-15.85,-15.85,0,*71
1537106533.04,51243,20.88,74576.3,9.09,-15.07,-15.21,0,*78
1537106534.23,51244,20.88,74576.0,9.09,-13.47,-13.47,0,*7B
1537106535.51,51245,20.88,74578.3,9.11,-13.01,-12.53,0,*75
1537106536.77,51246,20.88,74576.5,9.11,-12.93,-12.61,0,*7D
1537106538.03,51247,20.88,74574.3,9.13,-16.09,-16.09,0,*73
1537106539.29,51248,20.88,74578.3,9.11,-16.79,-15.81,0,*7A
1537106540.51,51249,20.88,74576.8,9.15,-17.31,-16.75,0,*7A
1537106541.77,51250,20.88,74580.8,9.11,-16.23,-15.63,0,*70
1537106543.02,51251,20.88,74576.8,9.13,-17.55,-17.03,0,*77
1537106544.27,51252,20.88,74576.5,9.05,-19.57,-18.69,0,*7C
1537106545.49,51253,20.88,74574.8,9.05,-18.65,-18.65,0,*71
1537106546.7,51254,20.88,74578.0,9.05,-18.65,-19.03,0,*77
1537106547.97,51255,20.88,74576.0,9.01,-18.89,-19.61,0,*74
1537106549.21,51256,20.88,74576.0,8.99,-18.89,-19.85,0,*7D
1537106550.48,51257,20.88,74572.8,8.97,-18.89,-19.85,0,*72
1537106551.68,51258,20.88,74574.0,8.95,-18.65,-19.47,0,*73
1537106552.9,51259,20.88,74568.8,8.95,-19.17,-19.85,0,*78
1537106554.15,51260,20.88,74574.5,8.93,-18.31,-18.25,0,*7A
1537106555.42,51261,20.88,74576.8,8.93,-16.65,-16.31,0,*7F
1537106556.61,51262,20.88,74576.5,8.95,-18.21,-17.49,0,*7A
1537106557.81,51263,20.88,74580.5,8.95,-18.21,-17.87,0,*79
1537106559.03,51264,20.88,74576.5,8.95,-16.93,-15.89,0,*75
1537106560.28,51265,20.88,74580.3,8.93,-17.83,-17.79,0,*7F
1537106561.53,51266,20.88,74574.8,8.93,-18.99,-18.55,0,*79
1537106562.78,51267,20.88,74580.5,8.93,-17.55,-16.79,0,*77
1537106564.02,51268,20.88,74578.3,8.93,-17.93,-17.31,0,*7F
1537106565.25,51269,20.88,74578.8,8.93,-16.79,-16.75,0,*7A
1537106566.49,51270,20.88,74578.3,8.97,-18.49,-18.89,0,*76
1537106567.73,51271,20.88,74580.3,8.93,-18.21,-18.89,0,*7D
1537106568.95,51272,20.88,74578.0,8.95,-18.69,-19.85,0,*79
1537106570.18,51273,20.88,74576.0,8.93,-18.99,-20.09,0,*7F
1537106571.4,51274,20.88,74574.5,8.91,-19.91,-20.79,0,*74
1537106572.63,51275,20.88,74576.8,8.89,-19.95,-20.63,0,*73
1537106573.89,51276,20.88,74574.8,8.87,-21.53,-22.31,0,*7A
1537106575.14,51277,20.88,74570.8,8.81,-21.53,-22.07,0,*78
1537106576.4,51278,20.88,74572.5,8.79,-22.47,-23.03,0,*73
1537106577.62,51279,20.88,74574.3,8.75,-22.83,-23.13,0,*77
1537106578.88,51280,20.88,74576.5,8.71,-22.21,-22.63,0,*7B
1537106580.15,51281,20.88,74576.0,8.71,-21.27,-21.27,0,*7C
1537106581.41,51282,20.88,74578.0,8.67,-21.73,-21.87,0,*73
1537106582.67,51283,20.88,74578.3,8.63,-21.27,-21.39,0,*72
1537106583.9,51284,20.88,74576.8,8.63,-20.63,-20.93,0,*75
1537106585.16,51285,20.88,74574.8,8.63,-19.99,-20.19,0,*79
1537106586.41,51286,20.88,74576.0,8.63,-19.23,-19.37,0,*7D
1537106587.62,51287,20.88,74576.3,8.65,-19.07,-19.51,0,*7C
1537106588.84,51288,20.88,74576.5,8.63,-19.75,-20.05,0,*7B
1537106590.07,51289,20.88,74574.5,8.57,-19.81,-20.25,0,*74
1537106591.27,51290,20.88,74576.5,8.57,-19.47,-20.25,0,*76
1537106592.5,51291,20.88,74574.8,8.53,-18.79,-20.15,0,*7C
1537106593.71,51292,20.88,74572.3,8.53,-18.73,-20.63,0,*74
1537106594.94,51293,20.88,74574.8,8.51,-18.99,-21.13,0,*75
1537106596.17,51294,20.88,74576.5,8.49,-19.71,-21.97,0,*70
1537106597.37,51295,20.88,74580.5,8.45,-21.47,-23.75,0,*7D
1537106598.56,51296,20.88,74576.0,8.39,-20.93,-22.87,0,*71
1537106599.79,51297,20.88,74576.5,8.35,-21.93,-23.69,0,*7C
1537106601.04,51298,20.88,74574.8,8.29,-22.57,-23.99,0,*7A
1537106602.25,51299,20.88,74572.5,8.27,-22.87,-24.11,0,*7F
1537106603.49,51300,20.88,74574.0,8.21,-22.37,-23.49,0,*79
1537106604.75,51301,20.88,74570.5,8.21,-22.21,-22.93,0,*79
1537106605.99,51302,20.88,74572.0,8.17,-22.37,-22.73,0,*76
1537106607.22,51303,20.88,74568.5,8.15,-22.21,-22.57,0,*74
1537106608.43,51304,20.88,74568.8,8.11,-21.39,-21.73,0,*78
1537106609.66,51305,20.88,74570.3,8.09,-21.03,-21.09,0,*74
1537106610.93,51306,20.88,74570.0,8.07,-21.27,-20.99,0,*77
1537106612.17,51307,20.88,74570.3,8.07,-20.93,-19.41,0,*77
1537106613.38,51308,20.88,74574.0,8.05,-19.51,-15.71,0,*71
1537106614.6,51309,20.88,74572.5,8.03,-17.49,-13.43,0,*76
1537106615.85,51310,20.88,74576.3,8.01,-15.35,-13.33,0,*72
1537106617.08,51311,20.88,74574.0,7.99,-16.55,-15.99,0,*7E
1537106618.34,51312,20.88,74578.0,7.97,-16.69,-15.85,0,*71
1537106619.58,51313,20.88,74580.5,7.97,-13.97,-13.19,0,*77
1537106620.81,51314,20.88,74582.5,7.95,-14.11,-15.15,0,*71
1537106622.04,51315,20.88,74584.3,7.93,-15.29,-15.57,0,*7A
1537106623.3,51316,20.88,74582.5,7.89,-12.15,-13.61,0,*79
1537106624.53,51317,20.88,74586.3,7.89,-14.43,-17.49,0,*73
1537106625.81,51318,20.88,74580.8,7.87,-14.01,-16.65,0,*7B
1537106627.05,51319,20.88,74582.5,7.85,-15.25,-18.31,0,*70
1537106628.31,51320,20.88,74576.8,7.85,-16.09,-19.27,0,*71
1537106629.53,51321,20.88,74574.3,7.79,-16.37,-19.85,0,*76
1537106630.76,51322,20.88,74574.3,7.77,-16.37,-19.99,0,*76
1537106632.03,51323,20.88,74566.5,7.73,-15.81,-19.85,0,*70
1537106633.27,51324,20.88,74564.5,7.67,-15.57,-20.15,0,*7A
1537106634.51,51325,20.88,74560.3,7.63,-14.75,-19.65,0,*73
1537106635.74,51326,20.88,74568.5,7.59,-14.11,-19.85,0,*75
1537106637.02,51327,20.88,74568.5,7.57,-14.55,-20.99,0,*7D
1537106638.27,51328,20.88,74566.0,7.53,-14.75,-21.13,0,*77
1537106639.53,51329,20.88,74568.3,7.49,-15.29,-21.33,0,*77
1537106640.81,51330,20.88,74568.0,7.43,-14.47,-19.85,0,*7A
1537106642.08,51331,20.88,74574.0,7.43,-12.79,-18.01,0,*7D
1537106643.29,51332,20.88,74568.8,7.41,-13.87,-19.03,0,*7F
1537106644.54,51333,20.88,74574.8,7.41,-14.05,-18.59,0,*7D
1537106645.74,51334,20.88,74570.0,7.37,-15.29,-19.03,0,*7A
1537106646.99,51335,20.88,74564.3,7.37,-14.43,-17.55,0,*7B
1537106648.25,51336,20.88,74562.0,7.35,-14.15,-17.03,0,*7A
1537106649.51,51337,20.88,74566.5,7.33,-13.87,-15.81,0,*79
1537106650.74,51338,20.88,74568.8,7.29,-12.97,-14.47,0,*76
1537106652.02,51339,20.88,74562.5,7.27,-11.55,-11.85,0,*7F
1537106653.21,51340,20.88,74564.5,7.25,-8.85,-10.85,0,*47
1537106654.42,51341,20.88,74566.0,7.25,-9.53,-9.89,0,*78
1537106655.64,51342,20.88,74570.5,7.21,-7.91,-8.85,0,*72
1537106656.86,51343,20.88,74566.8,7.21,-7.95,-8.21,0,*79
1537106658.07,51344,20.88,74570.3,7.19,-8.21,-8.21,0,*75
1537106659.31,51345,20.88,74572.8,7.19,-8.63,-7.99,0,*7E
1537106660.5,51346,20.88,74578.0,7.17,-7.19,-6.73,0,*74
1537106661.69,51347,20.88,74578.5,7.17,-7.15,-6.77,0,*7D
1537106662.96,51348,20.88,74582.3,7.15,-6.97,-7.31,0,*78
1537106664.18,51349,20.88,74578.8,7.17,-6.09,-7.65,0,*7D
1537106665.39,51350,20.88,74578.3,7.15,-5.97,-8.55,0,*7F
1537106666.58,51351,20.88,74582.3,7.13,-6.01,-9.23,0,*74
1537106667.81,51352,20.88,74578.0,7.11,-5.39,-9.11,0,*7C
1537106669.03,51353,20.88,74572.5,7.13,-5.73,-10.01,0,*48
1537106670.25,51354,20.88,74574.5,7.11,-6.13,-11.01,0,*49
1537106671.47,51355,20.88,74568.0,7.13,-5.97,-11.73,0,*40
1537106672.72,51356,20.88,74572.0,7.11,-5.93,-12.43,0,*45
1537106673.93,51357,20.88,74568.8,7.09,-7.05,-14.33,0,*41
1537106675.2,51358,20.88,74570.8,7.07,-7.31,-14.75,0,*45
1537106676.39,51359,20.88,74574.8,7.05,-7.23,-13.69,0,*4F
1537106677.65,51360,20.88,74572.5,7.03,-7.31,-13.79,0,*41
1537106678.9,51361,20.88,74576.8,7.03,-8.41,-15.43,0,*47
1537106680.15,51362,20.88,74576.5,7.03,-8.93,-15.81,0,*45
1537106681.44,51363,20.88,74572.3,7.03,-10.41,-17.07,0,*7E
1537106682.68,51364,20.88,74572.8,6.97,-11.51,-17.41,0,*77
1537106683.93,51365,20.88,74572.0,6.97,-12.35,-17.25,0,*75
1537106685.18,51366,20.88,74572.0,6.95,-11.51,-15.75,0,*72
1537106686.43,51367,20.88,74568.5,6.95,-11.93,-15.63,0,*7A
1537106687.66,51368,20.88,74568.0,6.95,-12.89,-15.75,0,*7A
1537106688.94,51369,20.88,74568.0,6.95,-11.93,-14.55,0,*70
1537106690.22,51370,20.88,74568.8,6.91,-11.73,-14.51,0,*76
1537106691.44,51371,20.88,74574.5,6.89,-11.33,-14.33,0,*7E
1537106692.65,51372,20.88,74572.0,6.89,-11.01,-14.69,0,*73
1537106693.89,51373,20.88,74574.5,6.85,-11.51,-14.93,0,*7E
1537106695.13,51374,20.88,74574.0,6.85,-11.37,-13.79,0,*7A
1537106696.36,51375,20.88,74574.0,6.83,-11.23,-12.83,0,*7C
1537106697.58,51376,20.88,74572.8,6.81,-10.45,-10.89,0,*74
1537106698.81,51377,20.88,74574.8,6.81,-8.29,-9.61,0,*78
1537106700.02,51378,20.88,74570.3,6.81,-8.21,-9.89,0,*79
1537106701.2,51379,20.88,74568.3,6.79,-8.29,-9.75,0,*74
1537106702.4,51380,20.88,74574.8,6.75,-8.45,-9.71,0,*70
1537106703.62,51381,20.88,74570.8,6.75,-8.51,-8.97,0,*7D
1537106704.81,51382,20.88,74570.3,6.75,-8.45,-8.17,0,*73
1537106706.04,51383,20.88,74568.5,6.73,-8.33,-7.73,0,*78
1537106707.28,51384,20.88,74568.0,6.71,-8.81,-7.99,0,*70
1537106708.48,51385,20.88,74570.0,6.71,-8.89,-7.83,0,*72
1537106709.7,51386,20.88,74564.0,6.71,-8.11,-7.15,0,*7F
1537106710.91,51387,20.88,74570.8,6.71,-7.31,-6.47,0,*75
1537106712.14,51388,20.88,74568.0,6.67,-5.93,-5.47,0,*74
1537106713.35,51389,20.88,74572.5,6.69,-4.13,-3.87,0,*78
1537106714.58,51390,20.88,74570.5,6.69,-3.55,-3.91,0,*72
1537106715.8,51391,20.88,74572.8,6.73,-2.99,-3.35,0,*77
1537106716.98,51392,20.88,74570.3,6.71,-2.91,-3.91,0,*70
1537106718.22,51393,20.88,74574.0,6.73,-2.59,-3.95,0,*73
1537106719.41,51394,20.88,74574.3,6.75,-2.31,-4.37,0,*73
1537106720.62,51395,20.88,74576.8,6.79,-1.91,-3.95,0,*78
1537106721.83,51396,20.88,74574.5,6.79,-2.07,-4.13,0,*7E
1537106723.03,51397,20.88,74574.0,6.83,-1.79,-3.67,0,*74
1537106724.24,51398,20.88,74572.8,6.85,-1.95,-3.83,0,*75
1537106725.48,51399,20.88,74576.8,6.87,-1.95,-3.27,0,*78
1537106726.72,51400,20.88,74574.5,6.91,-1.43,-3.19,0,*7E
1537106727.94,51401,20.88,74574.5,6.91,-1.67,-3.79,0,*7F
1537106729.15,51402,20.88,74574.8,6.95,-1.75,-3.91,0,*7D
1537106730.33,51403,20.88,74574.8,6.97,-2.19,-4.17,0,*7E
1537106731.51,51404,20.88,74572.8,6.97,-2.19,-4.41,0,*7A
1537106732.75,51405,20.88,74572.8,7.03,-2.03,-4.29,0,*72
1537106733.99,51406,20.88,74574.0,7.03,-2.11,-4.45,0,*78
1537106735.21,51407,20.88,74574.0,7.05,-2.27,-5.11,0,*7A
1537106736.42,51408,20.88,74574.0,7.09,-2.87,-6.19,0,*78
1537106737.63,51409,20.88,74572.5,7.09,-2.99,-6.27,0,*7B
1537106738.84,51410,20.88,74574.5,7.11,-2.99,-6.01,0,*7E
1537106740.08,51411,20.88,74574.3,7.13,-3.67,-7.35,0,*7B
1537106741.27,51412,20.88,74576.0,7.13,-4.09,-8.97,0,*70
1537106742.51,51413,20.88,74574.0,7.17,-5.61,-11.29,0,*47
1537106743.71,51414,20.88,74576.5,7.17,-5.97,-10.97,0,*4D
1537106744.91,51415,20.88,74576.3,7.21,-6.31,-11.01,0,*48
1537106746.16,51416,20.88,74578.3,7.21,-7.39,-11.89,0,*42
1537106747.38,51417,20.88,74576.0,7.25,-8.41,-12.57,0,*47
1537106748.6,51418,20.88,74568.8,7.27,-9.05,-12.93,0,*43
1537106749.84,51419,20.88,74574.5,7.27,-9.61,-13.15,0,*4F
1537106751.07,51420,20.88,74570.0,7.27,-10.19,-13.23,0,*77
1537106752.34,51421,20.88,74564.8,7.27,-10.75,-13.29,0,*76
1537106753.62,51422,20.88,74568.5,7.27,-10.75,-12.57,0,*7D
1537106754.84,51423,20.88,74568.5,7.29,-11.77,-13.07,0,*75
1537106756.06,51424,20.88,74572.8,7.29,-12.53,-13.47,0,*73
1537106757.29,51425,20.88,74570.5,7.31,-13.19,-13.51,0,*73
1537106758.54,51426,20.88,74568.0,7.25,-12.79,-12.57,0,*75
1537106759.76,51427,20.88,74564.3,7.25,-12.43,-11.81,0,*75
1537106761.0,51428,20.88,74564.8,7.25,-12.53,-11.33,0,*72
1537106762.21,51429,20.88,74562.8,7.25,-12.97,-11.45,0,*7A
1537106763.43,51430,20.88,74564.3,7.25,-13.01,-11.19,0,*75
1537106764.68,51431,20.88,74566.3,7.19,-13.37,-11.23,0,*77
1537106765.89,51432,20.88,74568.5,7.21,-12.89,-10.35,0,*7D
1537106767.09,51433,20.88,74574.0,7.21,-12.25,-9.31,0,*46
1537106768.31,51434,20.88,74576.0,7.15,-12.25,-8.93,0,*4F
1537106769.58,51435,20.88,74572.0,7.15,-11.73,-7.91,0,*43
1537106770.79,51436,20.88,74574.5,7.13,-10.85,-7.05,0,*43
1537106772.01,51437,20.88,74570.3,7.11,-10.49,-6.55,0,*44
1537106773.25,51438,20.88,74570.8,7.11,-10.35,-5.93,0,*49
1537106774.5,51439,20.88,74574.5,7.11,-9.79,-5.23,0,*73
1537106775.73,51440,20.88,74574.3,7.09,-8.11,-3.71,0,*7A
1537106776.97,51441,20.88,74566.8,7.09,-6.27,-2.47,0,*74
1537106778.22,51442,20.88,74562.5,7.09,-5.85,-2.51,0,*7B
1537106779.4,51443,20.88,74566.3,7.09,-4.17,-1.29,0,*7C
1537106780.61,51444,20.88,74566.3,7.09,-2.51,-0.65,0,*46
1537106781.81,51445,20.88,74566.0,7.11,-2.23,-1.33,0,*79
1537106783.0,51446,20.88,74566.5,7.13,-2.31,-2.27,0,*7D
1537106784.23,51447,20.88,74566.0,7.11,-3.11,-3.43,0,*7E
1537106785.47,51448,20.88,74570.8,7.11,-3.59,-3.83,0,*71
1537106786.71,51449,20.88,74564.8,7.11,-3.67,-4.33,0,*71
1537106787.9,51450,20.88,74564.5,7.09,-3.83,-4.13,0,*78
1537106789.09,51451,20.88,74564.0,7.09,-4.25,-4.17,0,*76
1537106790.32,51452,20.88,74568.0,7.09,-4.93,-4.77,0,*7E
1537106791.5,51453,20.88,74566.0,7.09,-4.37,-4.05,0,*74
1537106792.7,51454,20.88,74574.0,7.09,-4.69,-4.49,0,*70
1537106793.91,51455,20.88,74572.0,7.09,-4.81,-4.53,0,*7C
1537106795.13,51456,20.88,74572.0,7.09,-5.19,-4.65,0,*7A
1537106796.37,51457,20.88,74574.8,7.09,-5.31,-4.77,0,*72
1537106797.59,51458,20.88,74574.5,7.09,-5.55,-4.81,0,*76
1537106798.81,51459,20.88,74572.3,7.09,-5.69,-4.65,0,*72
1537106800.05,51460,20.88,74578.3,7.09,-6.23,-5.07,0,*70
1537106801.27,51461,20.88,74578.3,7.09,-6.47,-5.15,0,*70
1537106802.51,51462,20.88,74578.3,7.07,-6.51,-4.81,0,*76
1537106803.76,51463,20.88,74576.0,7.07,-5.81,-4.25,0,*77
1537106804.99,51464,20.88,74574.0,7.07,-5.73,-4.17,0,*7C
1537106806.2,51465,20.88,74574.5,7.09,-5.15,-3.75,0,*70
1537106807.43,51466,20.88,74572.3,7.07,-4.77,-3.87,0,*75
1537106808.62,51467,20.88,74578.0,7.09,-4.17,-4.25,0,*73
1537106809.84,51468,20.88,74578.8,7.09,-4.25,-5.03,0,*78
1537106811.08,51469,20.88,74572.5,7.07,-4.65,-5.73,0,*74
1537106812.32,51470,20.88,74574.3,7.07,-4.53,-5.27,0,*78
1537106813.54,51471,20.88,74574.8,7.05,-4.41,-5.19,0,*75
1537106814.79,51472,20.88,74576.5,7.07,-4.41,-5.27,0,*79
1537106816.04,51473,20.88,74572.3,7.07,-4.25,-5.07,0,*78
1537106817.26,51474,20.88,74574.3,7.03,-3.79,-4.57,0,*71
1537106818.46,51475,20.88,74572.3,7.05,-3.75,-4.41,0,*7D
1537106819.65,51476,20.88,74572.3,7.05,-3.19,-3.91,0,*7E
1537106820.87,51477,20.88,74574.5,7.03,-3.27,-4.05,0,*7E
1537106822.06,51478,20.88,74574.3,7.05,-3.39,-3.79,0,*74
1537106823.28,51479,20.88,74570.5,7.03,-3.19,-3.27,0,*7A
1537106824.47,51480,20.88,74574.3,7.05,-3.31,-3.07,0,*72
1537106825.69,51481,20.88,74570.0,7.05,-3.63,-2.95,0,*7E
1537106826.87,51482,20.88,74572.0,7.05,-4.41,-3.31,0,*75
1537106828.13,51483,20.88,74572.0,7.07,-5.07,-3.51,0,*73
1537106829.32,51484,20.88,74570.3,7.05,-6.13,-3.83,0,*7F
1537106830.56,51485,20.88,74568.8,7.05,-6.93,-3.63,0,*78
1537106831.81,51486,20.88,74572.8,7.03,-7.61,-3.55,0,*74
1537106833.03,51487,20.88,74572.5,7.03,-7.19,-3.07,0,*7D
1537106834.25,51488,20.88,74570.5,6.97,-6.39,-2.51,0,*7F
1537106835.46,51489,20.88,74570.5,6.97,-5.07,-1.51,0,*73
1537106836.68,51490,20.88,74568.8,6.99,-3.83,-0.73,0,*4E
1537106837.92,51491,20.88,74568.5,6.95,-2.71,-0.45,0,*4A
1537106839.12,51492,20.88,74564.0,6.95,-2.19,-0.61,0,*41
1537106840.34,51493,20.88,74566.8,6.95,-1.09,-0.03,0,*76
1537106841.53,51494,20.88,74566.5,6.93,-0.49,0.33,0,*5C
1537106842.73,51495,20.88,74568.3,6.93,-0.37,0.33,0,*54
1537106843.92,51496,20.88,74570.3,6.95,-0.61,0.01,0,*63
1537106845.1,51497,20.88,74570.0,6.93,-0.07,0.25,0,*62
1537106846.35,51498,20.88,74568.3,6.95,-0.23,0.25,0,*5D
1537106847.55,51499,20.88,74570.8,6.93,-0.37,0.21,0,*5B
1537106848.74,51500,20.88,74564.3,6.93,0.05,0.59,0,*49
1537106849.99,51501,20.88,74566.5,6.95,0.83,1.37,0,*49
1537106851.19,51502,20.88,74564.0,6.93,1.05,1.51,0,*73
1537106852.42,51503,20.88,74566.3,6.95,1.37,1.83,0,*7A
1537106853.62,51504,20.88,74566.8,6.93,1.43,1.79,0,*7D
1537106854.87,51505,20.88,74566.3,6.95,1.37,1.71,0,*71
1537106856.1,51506,20.88,74566.8,6.95,0.97,1.21,0,*4C
1537106857.36,51507,20.88,74566.3,6.95,1.09,1.33,0,*78
1537106858.61,51508,20.88,74564.5,6.95,1.37,1.43,0,*7D
1537106859.81,51509,20.88,74566.5,6.93,1.21,1.41,0,*7F
1537106861.06,51510,20.88,74566.5,6.95,1.55,1.55,0,*77
1537106862.29,51511,20.88,74568.3,6.95,1.25,1.01,0,*70
1537106863.55,51512,20.88,74566.0,6.95,1.33,0.87,0,*4B
1537106864.79,51513,20.88,74564.3,6.95,1.93,1.47,0,*7D
1537106866.04,51514,20.88,74566.3,6.99,2.13,1.71,0,*78
1537106867.24,51515,20.88,74570.0,6.97,1.75,1.37,0,*76
1537106868.47,51516,20.88,74572.0,6.99,1.79,1.17,0,*75
1537106869.72,51517,20.88,74572.0,6.99,1.51,0.91,0,*41
1537106870.97,51518,20.88,74570.3,7.03,1.89,1.17,0,*76
1537106872.19,51519,20.88,74574.8,7.05,1.67,0.91,0,*4E
1537106873.41,51520,20.88,74568.3,7.05,1.43,0.71,0,*4C
1537106874.66,51521,20.88,74574.5,7.03,1.51,0.79,0,*40
1537106875.86,51522,20.88,74574.3,7.05,1.51,1.01,0,*7B
1537106877.11,51523,20.88,74570.5,7.07,1.47,1.13,0,*7C
1537106878.32,51524,20.88,74568.5,7.09,0.47,0.25,0,*70
1537106879.54,51525,20.88,74568.0,7.09,0.87,0.87,0,*75
1537106880.73,51526,20.88,74570.8,7.09,0.95,0.97,0,*74
1537106881.95,51527,20.88,74570.5,7.09,1.25,1.55,0,*70
1537106883.16,51528,20.88,74574.5,7.09,1.83,1.85,0,*7E
1537106884.38,51529,20.88,74572.8,7.09,2.21,2.05,0,*7F
1537106885.62,51530,20.88,74574.3,7.11,1.47,1.17,0,*7D
1537106886.87,51531,20.88,74574.5,7.11,1.25,0.63,0,*4A
1537106888.07,51532,20.88,74570.5,7.09,1.75,1.09,0,*78
1537106889.29,51533,20.88,74572.0,7.11,2.09,1.01,0,*70
1537106890.54,51534,20.88,74576.0,7.11,1.71,0.55,0,*4B
1537106891.79,51535,20.88,74574.0,7.11,2.09,0.51,0,*42
1537106893.04,51536,20.88,74576.5,7.11,1.97,0.29,0,*4A
1537106894.27,51537,20.88,74574.8,7.11,2.01,-0.11,0,*61
1537106895.48,51538,20.88,74576.5,7.11,1.75,-0.81,0,*67
1537106896.71,51539,20.88,74574.5,7.11,1.25,-1.71,0,*5D
1537106897.94,51540,20.88,74574.5,7.11,0.75,-2.31,0,*60
1537106899.13,51541,20.88,74574.5,7.09,0.59,-2.27,0,*61
1537106900.33,51542,20.88,74570.0,7.09,0.01,-2.71,0,*5C
1537106901.59,51543,20.88,74572.5,7.07,-0.27,-2.59,0,*40
1537106902.81,51544,20.88,74574.3,7.07,-0.03,-1.95,0,*72
1537106904.06,51545,20.88,74570.5,7.07,0.13,-1.35,0,*65
1537106905.29,51546,20.88,74568.0,7.07,0.21,-0.77,0,*50
1537106906.55,51547,20.88,74568.0,7.07,1.21,0.51,0,*49
1537106907.8,51548,20.88,74568.8,7.07,1.85,0.87,0,*43
1537106909.05,51549,20.88,74570.8,7.07,2.21,1.13,0,*73